Estación municipal de St. Hilari Sacalm (La Selva, Guilleries)

Consulta los datos en tiempo real de la estación municipal de St. Hilari Sacalm





Hora UTC 09:20
Temperatura 28.1 ºC
Humedad 50.7 %
Presión 1024.0 hPa
Pluja 0.0 mm
Velocidad viento 4.8 km/h
Dirección viento NE
Radiación solar 634.4 W/m²

Webcam

Datos diarios 2026-09-04



Hora UTC (invierno +1h; verano +2h)
Temperatura (ºC) Humedad (%) Presión (hPa) Velocidad viento (km/h) Precipitación (mm) Radiación solar (W/m²)
Hora UTC Aire Humedad Presión Vel. Dir. Vel. Max Dir. Intent. máx 5 min. Rad. Sol.
00:05 20.0 75.8 1024.8 0.0 NNE 0.0 WNW 0.0 0.1
00:10 20.0 76.3 1024.7 0.0 NNE 0.0 W 0.0 0.1
00:15 20.1 76.4 1024.7 0.0 NNE 0.0 W 0.0 0.1
00:20 20.1 75.8 1024.7 0.0 NNE 0.0 SW 0.0 0.1
00:25 20.1 75.9 1024.7 0.0 NNE 0.0 WSW 0.0 0.1
00:30 20.1 76.4 1024.6 0.0 NNE 0.0 W 0.0 0.1
00:35 20.3 76.6 1024.5 0.0 NNE 0.0 WNW 0.0 0.1
00:40 20.5 75.4 1024.5 0.0 NNE 0.0 W 0.0 0.1
00:45 20.5 75.2 1024.5 0.0 NNE 0.0 WSW 0.0 0.1
00:50 20.4 75.1 1024.5 0.0 NNE 0.0 WSW 0.0 0.1
00:55 20.2 76.1 1024.4 0.0 NNE 0.0 SSW 0.0 0.1
01:00 20.1 77.1 1024.4 0.0 NNE 0.0 SW 0.0 0.1
01:05 20.0 77.6 1024.3 0.0 NNE 0.0 WNW 0.0 0.1
01:10 19.9 78.0 1024.3 0.0 NNE 0.0 W 0.0 0.1
01:15 19.9 78.2 1024.3 0.0 NNE 0.0 WNW 0.0 0.1
01:20 19.9 78.5 1024.2 0.0 NNE 0.0 W 0.0 0.1
01:25 20.0 78.1 1024.2 0.0 NNE 0.0 WSW 0.0 0.1
01:30 20.1 77.2 1024.2 0.0 NNE 0.0 S 0.0 0.1
01:35 20.0 77.7 1024.1 0.0 NNE 0.0 SW 0.0 0.2
01:40 20.0 78.2 1024.1 0.0 NNE 0.0 SW 0.0 0.1
01:45 20.1 77.8 1024.1 0.0 NNE 0.0 S 0.0 0.2
01:50 20.0 77.8 1024.1 0.0 NNE 0.0 SSW 0.0 0.1
01:55 20.0 77.8 1024.1 0.0 NNE 0.0 WSW 0.0 0.1
02:00 20.0 77.6 1024.0 0.0 NNE 0.0 S 0.0 0.1
02:05 20.1 77.2 1024.0 0.0 NNE 0.0 SSW 0.0 0.1
02:10 20.1 76.9 1024.0 0.0 NNE 0.0 SSW 0.0 0.1
02:15 20.0 76.8 1024.0 0.0 NNE 0.0 SSW 0.0 0.1
02:20 19.9 77.2 1023.9 0.0 NNE 0.0 S 0.0 0.1
02:25 19.8 77.5 1023.9 0.0 NNE 0.0 SW 0.0 0.1
02:30 19.9 76.7 1023.9 0.0 NNE 0.0 S 0.0 0.1
02:35 20.0 76.5 1023.9 0.0 NNE 0.0 S 0.0 0.1
02:40 19.8 77.0 1023.8 0.0 NNE 0.0 SSW 0.0 0.2
02:45 19.8 77.2 1023.8 0.0 NNE 0.0 SW 0.0 0.2
02:50 19.8 76.9 1023.8 0.0 NNE 0.0 SSW 0.0 0.1
02:55 19.6 77.0 1023.8 0.0 NNE 0.0 SW 0.0 0.2
03:00 19.5 77.3 1023.8 0.0 NNE 0.0 WSW 0.0 0.1
03:05 19.5 77.1 1023.8 0.0 NNE 0.0 W 0.0 0.1
03:10 19.5 77.3 1023.8 0.0 NNE 0.0 S 0.0 0.1
03:15 19.5 77.1 1023.8 0.0 NNE 0.0 NW 0.0 0.1
03:20 19.5 76.9 1023.7 0.0 NNE 0.0 W 0.0 0.1
03:25 19.6 77.0 1023.6 0.0 NNE 0.0 W 0.0 0.1
03:30 19.7 76.8 1023.6 0.0 NNE 0.0 WNW 0.0 0.1
03:35 19.5 77.1 1023.5 0.0 NNE 0.0 WSW 0.0 0.1
03:40 19.3 77.6 1023.5 0.0 NNE 0.0 SW 0.0 0.1
03:45 19.1 78.1 1023.5 0.0 NNE 0.0 SW 0.0 0.1
03:50 19.1 78.8 1023.5 0.0 NNE 0.0 W 0.0 0.1
03:55 19.2 78.7 1023.5 0.0 NNE 0.0 S 0.0 0.1
04:00 19.2 79.1 1023.5 0.0 NNE 0.0 WNW 0.0 0.1
04:05 19.3 79.0 1023.4 0.0 NNE 0.0 WSW 0.0 0.1
04:10 19.2 79.1 1023.4 0.0 NNE 0.0 SW 0.0 0.1
04:15 19.3 79.6 1023.3 0.0 NNE 0.0 W 0.0 0.1
04:20 19.2 79.2 1023.3 0.0 NNE 0.0 WSW 0.0 0.1
04:25 19.3 80.1 1023.3 0.0 NNE 0.0 WSW 0.0 0.1
04:30 19.3 79.9 1023.3 0.0 NNE 0.0 NW 0.0 0.1
04:35 19.2 80.0 1023.3 0.0 NNE 0.0 W 0.0 0.1
04:40 19.1 80.5 1023.3 0.0 NNE 0.0 SW 0.0 0.1
04:45 19.1 81.2 1023.3 0.0 NNE 0.0 SW 0.0 0.1
04:50 19.2 80.9 1023.3 0.0 NNE 0.0 WSW 0.0 0.2
04:55 19.2 80.8 1023.3 0.0 NNE 0.0 W 0.0 0.2
05:00 19.2 80.7 1023.3 0.0 NNE 0.0 WSW 0.0 0.2
05:05 19.4 80.1 1023.3 0.0 NNE 0.0 W 0.0 0.5
05:10 19.4 79.8 1023.2 0.0 NNE 0.0 WNW 0.0 1.0
05:15 19.3 80.1 1023.2 0.0 NNE 0.0 W 0.0 2.0
05:20 19.3 80.5 1023.2 0.0 NNE 0.0 SW 0.0 3.6
05:25 19.1 81.1 1023.1 0.0 NNE 0.0 WSW 0.0 5.5
05:30 19.0 81.4 1023.1 0.0 NNE 0.0 SSW 0.0 7.9
05:35 19.0 81.6 1023.1 0.0 NNE 0.0 SSW 0.0 10.8
05:40 19.1 81.3 1023.1 0.0 NNE 0.0 SSE 0.0 14.6
05:45 19.3 80.3 1023.0 0.0 NNE 0.0 S 0.0 17.5
05:50 19.3 80.1 1023.1 0.0 NNE 0.0 SSW 0.0 44.5
05:55 19.3 80.0 1023.1 0.0 NNE 0.0 S 0.0 68.8
06:00 19.6 78.9 1023.1 0.0 NNE 0.0 SSW 0.0 83.6
06:05 20.1 76.9 1023.2 0.0 NNE 0.0 SSW 0.0 97.7
06:10 20.3 75.5 1023.2 0.0 NNE 0.0 SSW 0.0 111.4
06:15 20.8 74.0 1023.3 0.0 NNE 0.0 SSW 0.0 125.7
06:20 21.2 72.3 1023.3 0.0 NNE 0.0 SSW 0.0 140.0
06:25 21.9 70.0 1023.4 0.0 NNE 0.0 SSW 0.0 154.9
06:30 22.1 68.4 1023.4 0.0 NNE 0.0 SW 0.0 169.4
06:35 22.1 68.9 1023.4 0.0 NNE 0.0 SSW 0.0 184.4
06:40 22.4 67.8 1023.4 0.0 NNE 0.0 S 0.0 198.7
06:45 22.7 66.9 1023.4 0.0 NNE 0.0 S 0.0 214.0
06:50 23.3 65.1 1023.4 0.0 NNE 0.0 S 0.0 229.9
06:55 24.1 62.9 1023.3 0.0 NNE 0.0 S 0.0 246.1
07:00 25.0 59.8 1023.3 0.0 NNE 0.0 E 0.0 260.9
07:05 25.8 56.0 1023.3 0.0 NNE 0.0 E 0.0 276.0
07:10 26.8 50.7 1023.4 0.0 NNE 0.0 E 0.0 291.1
07:15 27.2 48.6 1023.4 0.0 NNE 0.0 ENE 0.0 306.2
07:20 27.2 46.6 1023.4 0.0 NNE 0.0 ENE 0.0 321.3
07:25 27.2 47.3 1023.5 0.0 NNE 0.0 E 0.0 336.1
07:30 26.9 47.5 1023.5 0.0 NNE 0.0 ENE 0.0 351.0
07:35 26.9 47.0 1023.5 0.0 NNE 0.0 ENE 0.0 366.2
07:40 27.0 48.0 1023.5 0.0 NNE 0.0 NE 0.0 381.4
07:45 27.1 48.9 1023.5 0.0 NNE 0.0 NE 0.0 394.5
07:50 27.1 50.1 1023.5 0.0 NNE 0.0 E 0.0 376.4
07:55 27.0 51.3 1023.5 0.0 NNE 0.0 NE 0.0 425.2
08:00 27.1 51.1 1023.5 0.0 NNE 0.0 ENE 0.0 439.5
08:05 27.5 50.4 1023.5 0.0 NNE 0.0 NE 0.0 453.4
08:10 27.3 50.8 1023.5 0.0 NNE 0.0 NE 0.0 467.0
08:15 27.5 51.4 1023.5 0.0 NNE 0.0 ENE 0.0 480.7
08:20 27.7 50.8 1023.6 0.0 NNE 0.0 ENE 0.0 493.9
08:25 27.6 50.8 1023.6 0.0 NNE 0.0 NE 0.0 507.1
08:30 27.5 51.2 1023.6 0.0 NNE 0.0 NE 0.0 520.5
08:35 27.4 52.0 1023.7 0.0 NNE 0.0 NE 0.0 532.1
08:40 27.5 51.2 1023.7 0.0 NNE 0.0 ENE 0.0 544.5
08:45 27.5 52.0 1023.8 0.0 NNE 0.0 NNE 0.0 557.1
08:50 27.4 50.9 1023.8 0.0 NNE 0.0 ENE 0.0 569.5
08:55 27.6 51.3 1023.8 0.0 NNE 0.0 NE 0.0 581.1
09:00 27.9 50.5 1023.8 0.0 NNE 0.0 NE 0.0 592.5
09:05 28.0 50.6 1023.8 3.2 ENE 11.5 ENE 0.0 603.6
09:10 28.0 51.3 1023.9 3.4 NE 8.8 NE 0.0 614.2
09:15 28.0 51.3 1023.9 3.2 ENE 11.5 NNE 0.0 625.1
09:20 28.1 50.7 1024.0 4.8 NE 11.5 ENE 0.0 634.4
Máxima 28.1 81.6 1024.8 4.8 NE 11.5 ENE 0.0 634.4
Mínima 19.0 46.6 1023.0
Total 0.0